BN5_time,BN5_WTE_05_Temp,BN5_WTE_05_VWC,BN5_WTE_05_Cond,BN5_Pot_05_Temp,BN5_Pot_05_Soil_Water_Pot,BN5_WTE_10_Temp,BN5_WTE_10_VWC,BN5_WTE_10_Cond,BN5_Pot_10_Temp,BN5_Pot_10_Soil_Water_Pot,BN5_Pot_15_Temp,BN5_Pot_15_Soil_Water_Pot
2014-07-24,16.6375005245209,0.29613085091114,0.629999987781048,16.2000000476837,-10.8000593185425,14.587500333786,0.273256354033947,0.579999983310699,15.0625002384186,-11.1000804901123,13.849999666214,-10.8674347400665
2014-07-25,16.6750003496806,0.269024613002936,0.362083333233992,15.8666666348775,-10.8302404483159,14.6708333094915,0.275059623022874,0.567916661500931,14.6958334445953,-11.1887475649516,13.4999999205271,-10.8637860218684
2014-07-26,16.6666669845581,0.252772532403469,0.231666666145126,15.8000001907349,-10.7631616592407,14.6999998092651,0.274290060003599,0.547083348035812,14.5625002384186,-11.6091421445211,13.3999996185303,-10.9281210104624
2014-07-27,16.4916666348775,0.244247235978643,0.154166668032606,15.7625000476837,-10.3253886302312,14.7458333174388,0.278220421324174,0.546250015497208,14.6000003814697,-11.6989525556564,13.3999996185303,-11.0200986464818
2014-07-28,16.0416667461395,0.240452465290825,0.118333330998818,15.6083334287008,-10.0355796813965,14.8000001907349,0.275267967333396,0.53583333392938,14.6000003814697,-11.3462956746419,13.4541664918264,-11.1774938106537
2014-07-29,15.8791666030884,0.236897237598896,0.0958333356926839,15.4166663487752,-9.81892351309458,14.7916668256124,0.274433553218842,0.529999971389771,14.5125000476837,-11.2379450003306,13.5,-11.3845631281535
2014-07-30,15.6125000317891,0.233585488051176,0.0879166691253583,15.2958333492279,-9.64759588241577,14.6999998092651,0.273767330994209,0.529999971389771,14.5,-11.3012409210205,13.5,-11.5615715583165
2014-07-31,15.4499998092651,0.231025032078226,0.0799999982118607,15.1541667381922,-9.51626805464427,14.6999998092651,0.272942336897055,0.523333311080933,14.3999996185303,-11.3904182910919,13.5,-11.6882162888845
2014-08-01,15.3583331902822,0.230037795379758,0.070416665636003,15.087500333786,-9.33548692862193,14.6791665951411,0.273046255111694,0.520833313465118,14.3541665474574,-11.266687075297,13.5,-11.6513775984446
2014-08-02,15.3000001907349,0.23496978605787,0.0691666666728755,15,-9.09968090057373,14.6000003814697,0.278737613310417,0.529999971389771,14.3000001907349,-10.8869907458623,13.5,-11.3617315292358
2014-08-03,15.279166618983,0.235579529156288,0.0795833316321174,15,-9.09968090057373,14.6000003814697,0.279961941142877,0.529999971389771,14.3000001907349,-10.7359005212784,13.5,-11.2072195212046
2014-08-04,15.158333381017,0.236348450183868,0.0799999982118607,14.9041663010915,-9.09968090057373,14.5625002384186,0.280424036085606,0.529999971389771,14.2541666825612,-10.6160178979238,13.5,-11.0090756813685
2014-08-05,15.0916666587194,0.23620351155599,0.0799999982118607,14.8791664044062,-9.18061077594757,14.5,0.281128602723281,0.529999971389771,14.1999998092651,-10.6004953384399,13.5,-10.8999910354614
2014-08-06,15.1000002622604,0.236504454786579,0.0829166667535901,14.8000001907349,-9.15620998541514,14.5,0.281550224870443,0.529999971389771,14.1999998092651,-10.5612154801687,13.5,-10.8575143019358
2014-08-07,15.237500111262,0.243251311903199,0.0979166685914,14.8708331187566,-9.09968090057373,14.5,0.283981956541538,0.529999971389771,14.1999998092651,-10.5008907318115,13.5,-10.7061877250671
2014-08-08,15.0750000874201,0.244702010725935,0.100000001490116,14.8541665474574,-9.16504820187887,14.5,0.285754506786664,0.533749990165234,14.1999998092651,-10.5008907318115,13.5,-10.6936635573705
2014-08-09,14.9624998569489,0.244815351441503,0.100000001490116,14.7791667779287,-9.2008113861084,14.4874999523163,0.285767259697119,0.529999971389771,14.158333381017,-10.5008907318115,13.5,-10.6245491902033
2014-08-10,14.8541665474574,0.244290766616662,0.100000001490116,14.6999998092651,-9.2008113861084,14.3999996185303,0.285842974980672,0.529999971389771,14.1000003814697,-10.5008907318115,13.5,-10.6004953384399
2014-08-11,14.6583334207535,0.243907386437058,0.0962500022724271,14.6000003019969,-9.20452400048574,14.3999996185303,0.285350513954957,0.529999971389771,14.1000003814697,-10.5008907318115,13.5,-10.6004953384399
2014-08-12,14.3458332618078,0.242968898887436,0.0900000035762787,14.4499998092651,-9.2936231692632,14.3291666905085,0.285173609852791,0.529166638851166,14.0125000476837,-10.5289096832275,13.4249997138977,-10.6004953384399
2014-08-13,14.137500166893,0.242199188098311,0.0900000035762787,14.2625000476837,-9.30092525482178,14.266666730245,0.285097566743692,0.521249979734421,13.9249997138977,-10.6004953384399,13.3999996185303,-10.6004953384399
2014-08-14,14.1541667381922,0.241928032288949,0.0900000035762787,14.1999998092651,-9.30092525482178,14.137500166893,0.285514677564303,0.519999980926514,13.7791665395101,-10.6004953384399,13.3916663328807,-10.6004953384399
2014-08-15,14.1708333094915,0.24237048625946,0.0900000035762787,14.1791665951411,-9.30092525482178,14.1000003814697,0.285956479609013,0.519999980926514,13.6999998092651,-10.6004953384399,13.3000001907349,-10.6004953384399
2014-08-16,14.1208333571752,0.242313424746195,0.0887500029057264,14.1000003814697,-9.30092525482178,14.1000003814697,0.286233901977539,0.519999980926514,13.6916665236155,-10.6004953384399,13.3000001907349,-10.6004953384399
2014-08-17,13.9333332379659,0.241856681182981,0.0804166651020447,14.0458335081736,-9.30119303862254,14.0083333651225,0.285855272163947,0.518749982118607,13.6000003814697,-10.6091596285502,13.2625000476837,-10.6004953384399
2014-08-18,13.691666841507,0.241156265760461,0.0799999982118607,13.8958330949148,-9.36411090691884,13.9374997615814,0.285502145687739,0.510833323001862,13.5583335558573,-10.6951957543691,13.1999998092651,-10.6004953384399
2014-08-19,13.4750000238419,0.240182324002186,0.0799999982118607,13.6708333094915,-9.39996337890625,13.8916663328807,0.2854895144701,0.509999990463257,13.4624998569489,-10.7010440826416,13.1999998092651,-10.6004953384399
2014-08-20,13.2541666825612,0.239306353032589,0.0783333318928878,13.5125000476837,-9.39996337890625,13.7166665395101,0.285552670558294,0.509999990463257,13.3583331902822,-10.7010440826416,13.1125003099442,-10.6004953384399
2014-08-21,13.137500166893,0.238500646005074,0.0700000002980232,13.3666664759318,-9.39996337890625,13.6000003814697,0.28531256566445,0.509999990463257,13.2374999523163,-10.7056729396184,13.0791669686635,-10.657156586647
2014-08-22,13.0583335558573,0.238212406014403,0.0700000002980232,13.2625000476837,-9.41243767738342,13.5083333651225,0.284971093138059,0.509999990463257,13.1416668097178,-10.7975738843282,13,-10.7010440826416
2014-08-23,12.9333331982295,0.23789508578678,0.0700000002980232,13.1666666666667,-9.46228377024333,13.4041663010915,0.284895144402981,0.505833327770233,13.0625002384186,-10.7874700625738,12.9333330790202,-10.7010440826416
2014-08-24,12.8166664838791,0.239679841945569,0.0758333324144284,13.0708336035411,-9.39996337890625,13.341666618983,0.285198698441188,0.502083331346512,12.9791665871938,-10.704228758812,12.8958329757055,-10.7010440826416
2014-08-25,12.7458333174388,0.240469100574652,0.0799999982118607,12.9749999046326,-9.39996337890625,13.2416666348775,0.285603195428848,0.5,12.8999996185303,-10.7867253621419,12.8000001907349,-10.7010440826416
2014-08-26,12.8833330869675,0.240583747625351,0.0795833316321174,12.9499998092651,-9.39996337890625,13.1999998092651,0.285704165697098,0.5,12.8041668335597,-10.8000593185425,12.766666730245,-10.7010440826416
2014-08-27,13,0.240497771650553,0.0779166653131445,13,-9.39996337890625,13.1458334525426,0.286548669139544,0.5,12.8000001907349,-10.8000593185425,12.6999998092651,-10.7010440826416
2014-08-28,13.1458335320155,0.240440454334021,0.0729166663562258,13.0458335081736,-9.40230909983317,13.1000003814697,0.287026848644018,0.5,12.8000001907349,-10.8000593185425,12.6999998092651,-10.7010440826416
2014-08-29,13.3458332618078,0.24041178325812,0.0700000002980232,13.1625000238419,-9.4476531346639,13.1999998092651,0.286951327075561,0.5,12.8000001907349,-10.8000593185425,12.6999998092651,-10.7010440826416
2014-08-30,13.3999996185303,0.240196693067749,0.0700000002980232,13.1999998092651,-9.49522717793783,13.1999998092651,0.286989130079746,0.5,12.8666664759318,-10.8000593185425,12.6916665236155,-10.7010440826416
2014-08-31,13.3458332618078,0.239421422282855,0.0700000002980232,13.2208332220713,-9.50005531311035,13.1999998092651,0.287114858627319,0.5,12.8999996185303,-10.8007847468058,12.6999998092651,-10.7010440826416
2014-09-01,13.3791664044062,0.238918182750543,0.0683333333581686,13.1999998092651,-9.50005531311035,13.1999998092651,0.287303222964207,0.5,12.8999996185303,-10.8387894233068,12.6999998092651,-10.7010440826416
2014-09-02,13.4083332618078,0.238529497136672,0.0599999986588955,13.3000001907349,-9.50005531311035,13.2541666825612,0.287378657609224,0.5,12.8999996185303,-10.8797305027644,12.6999998092651,-10.7010440826416
2014-09-03,13.4041663010915,0.238097131873171,0.0599999986588955,13.3000001907349,-9.50005531311035,13.3000001907349,0.287617196639379,0.5,12.8999996185303,-10.8998864889145,12.6999998092651,-10.7010440826416
2014-09-04,13.6041668256124,0.237779796744386,0.059166665499409,13.3458332618078,-9.50005531311035,13.3000001907349,0.287416368722916,0.5,12.8999996185303,-10.8999910354614,12.6999998092651,-10.7010440826416
2014-09-05,13.8749997615814,0.237664208437006,0.051666667064031,13.483333269755,-9.50005531311035,13.3374999761581,0.28732821593682,0.5,12.983333269755,-10.8999910354614,12.6999998092651,-10.7010440826416
2014-09-06,13.8999996185303,0.237447574113806,0.0500000007450581,13.6000003814697,-9.50005531311035,13.3999996185303,0.287352974216143,0.499166667461395,13.0500001907349,-10.8999910354614,12.6999998092651,-10.7059762477875
2014-09-07,13.8499997854233,0.237534257893761,0.0500000007450581,13.6333335240682,-9.50005531311035,13.4791665871938,0.286523509770632,0.495416671037674,13.1000003814697,-10.8999910354614,12.6999998092651,-10.7428128321966
2014-09-08,13.5875000158946,0.236681389311949,0.0449999999254942,13.5708336035411,-9.53236452738444,13.5,0.286196110149225,0.498750001192093,13.1000003814697,-10.9231765667597,12.7916668256124,-10.7549834251404
2014-09-09,13.4499998092651,0.236131079494953,0.0399999991059303,13.4624998569489,-9.59900379180908,13.4624998569489,0.285906106233597,0.492500007152557,13.1000003814697,-11.0003201564153,12.8000001907349,-10.7966421047846
2014-09-10,13.4291663964589,0.235681585967541,0.0399999991059303,13.3999996185303,-9.59900379180908,13.3999996185303,0.285641059279442,0.490000009536743,13.0708336035411,-11.0008478164673,12.8000001907349,-10.8000593185425
2014-09-11,13.4791665871938,0.235449305425088,0.0399999991059303,13.3999996185303,-9.59900379180908,13.3999996185303,0.285540039340655,0.490000009536743,13,-11.0008478164673,12.8000001907349,-10.8000593185425
2014-09-12,13.5,0.234926323095957,0.0399999991059303,13.3999996185303,-9.59900379180908,13.3999996185303,0.285236828029156,0.490000009536743,13,-11.0008478164673,12.8000001907349,-10.8000593185425
2014-09-13,13.5125000476837,0.234489969909191,0.0399999991059303,13.3999996185303,-9.59900379180908,13.3999996185303,0.285224184393883,0.490000009536743,13,-11.0008478164673,12.8000001907349,-10.8000593185425
2014-09-14,13.4958333174388,0.23400945092241,0.0324999992735684,13.3999996185303,-9.59900379180908,13.3999996185303,0.284781381487846,0.490000009536743,13,-11.0100419123967,12.8000001907349,-10.8006812334061
2014-09-15,13.5,0.23379081984361,0.0299999993294477,13.3999996185303,-9.64794262250265,13.3999996185303,0.284388522307078,0.490000009536743,13,-11.090723435084,12.7291665871938,-10.8688055674235
2014-09-16,13.5833336114883,0.233790807425976,0.0304166659868012,13.3999996185303,-9.69898223876953,13.3999996185303,0.28343652933836,0.489583342025677,13,-11.1000804901123,12.6999998092651,-10.8999910354614
2014-09-17,13.7249999046326,0.233834555993477,0.0299999993294477,13.4708332220713,-9.69898223876953,13.3999996185303,0.282495164622863,0.489166674514612,13,-11.1000804901123,12.6999998092651,-10.8999910354614
2014-09-18,13.8916663726171,0.233747058858474,0.0299999993294477,13.5666669209798,-9.69898223876953,13.4083329836528,0.281997655828794,0.483749996870756,13.087500333786,-11.1000804901123,12.7708334128062,-10.8999910354614
2014-09-19,14,0.233703335126241,0.0299999993294477,13.6666666666667,-9.69898223876953,13.5,0.281729480872552,0.479999989271164,13.1041670242945,-11.1000804901123,12.8000001907349,-10.8999910354614
2014-09-20,14,0.233601226160924,0.0299999993294477,13.6999998092651,-9.69898223876953,13.5500001907349,0.281512339909871,0.479999989271164,13.1999998092651,-11.1000804901123,12.8000001907349,-10.9002002080282
2014-09-21,13.833333214124,0.23311951632301,0.0299999993294477,13.6916665236155,-9.69907530148824,13.6000003814697,0.281601838767529,0.479999989271164,13.1999998092651,-11.1000804901123,12.8000001907349,-10.9037579298019
2014-09-22,13.4375001192093,0.232344671462973,0.0299999993294477,13.5458335081736,-9.78089169661204,13.5750002861023,0.281525135040283,0.479999989271164,13.1999998092651,-11.1673361063004,12.8749997615814,-10.9614721934001
2014-09-23,13.1708334287008,0.231524480506778,0.0299999993294477,13.3499999046326,-9.82209479808807,13.483333269755,0.280898132671912,0.479999989271164,13.1125003099442,-11.2002096176147,12.8499999046326,-11.0008478164673
2014-09-24,13.0750002861023,0.231128359213471,0.0299999993294477,13.1999998092651,-9.89979362487793,13.3999996185303,0.280141241848469,0.479999989271164,13.016666730245,-11.2002096176147,12.8000001907349,-11.0008478164673
2014-09-25,12.9416664441427,0.230673059200247,0.0299999993294477,13.1000003417333,-9.90683460235596,13.3041668335597,0.279293637722731,0.477916657924652,12.9416664441427,-11.2524033387502,12.8000001907349,-11.0472237666448
2014-09-26,13.0458335081736,0.230305541927616,0.0299999993294477,13.0416668256124,-9.99475665887197,13.2166665395101,0.279177844524384,0.479999989271164,12.8999996185303,-11.3009157180786,12.733333269755,-11.0999740362167
2014-09-27,12.9125000635783,0.229613564287623,0.0299999993294477,13.0458335081736,-10.0006017684937,13.1999998092651,0.279177844524384,0.47749999165535,12.8083334763845,-11.3012409210205,12.6999998092651,-11.1000804901123
2014-09-28,12.7416666348775,0.22892053052783,0.0299999993294477,12.912499666214,-10.0006017684937,13.1416668097178,0.27901042625308,0.471666663885117,12.8000001907349,-11.3012409210205,12.6999998092651,-11.1000804901123
2014-09-29,12.862499833107,0.228654757142067,0.0299999993294477,12.8999996185303,-10.0409933725993,13.1000003814697,0.278520692139864,0.469999998807907,12.6999998092651,-11.3012409210205,12.616666952769,-11.1000804901123
2014-09-30,12.9208330313365,0.228300099571546,0.0299999993294477,12.8999996185303,-10.1001110076904,13.1000003814697,0.278236887107293,0.469999998807907,12.6999998092651,-11.3012409210205,12.6000003814697,-11.1068005164464
2014-10-01,12.9624998569489,0.227663966516654,0.0299999993294477,12.8999996185303,-10.1001110076904,13.1000003814697,0.277939885854721,0.469999998807907,12.6999998092651,-11.3012409210205,12.6000003814697,-11.1690993309021
2014-10-02,12.8458333412806,0.227130484456817,0.0299999993294477,12.8999996185303,-10.1219155788422,13.1000003814697,0.277939885854721,0.469999998807907,12.6999998092651,-11.3223495483398,12.6000003814697,-11.1849740743637
2014-10-03,12.4416664441427,0.2260467633605,0.0299999993294477,12.7499999602636,-10.2287266254425,13,0.277681319663922,0.469999998807907,12.6541667381922,-11.400559425354,12.5416668256124,-11.1601150035858
2014-10-04,12.5583335558573,0.225600626319647,0.0299999993294477,12.6333335240682,-10.2997369766235,12.9374997615814,0.276981870333354,0.463750004768372,12.5666669209798,-11.400559425354,12.5,-10.9516618649165
2014-10-05,12.2916667064031,0.225138833746314,0.0299999993294477,12.5875002543132,-10.3487762212753,12.8958329757055,0.276360054810842,0.46000000834465,12.5,-11.4422775506973,12.5,-10.8999910354614
2014-10-06,11.9624998569489,0.224423173815012,0.0299999993294477,12.3833332061768,-10.4690023263295,12.7750000953674,0.275826867669821,0.46000000834465,12.4291663964589,-11.5007495880127,12.4208330313365,-10.8999910354614
2014-10-07,11.7416667540868,0.224124560753504,0.0299999993294477,12.1916666825612,-10.5008907318115,12.6625000238419,0.27485108623902,0.456250000745058,12.3083334366481,-11.5007495880127,12.3916663328807,-10.8999910354614
2014-10-08,11.400000055631,0.223750960081816,0.0299999993294477,11.9791665871938,-10.5459244648616,12.5541668732961,0.274590164422989,0.455833333233992,12.1666666666667,-11.532980243365,12.3000001907349,-10.8999910354614
2014-10-09,11.3000001907349,0.223691144337257,0.0299999993294477,11.7958334684372,-10.6004953384399,12.3874997695287,0.274120057622592,0.449999988079071,12.0333334604899,-11.5991497039795,12.2208332220713,-10.8999910354614
2014-10-10,11.3166667620341,0.223840683698654,0.0299999993294477,11.6999998092651,-10.6004953384399,12.2750000953674,0.273937339584033,0.449999988079071,11.9083329836528,-11.5991497039795,12.1291668812434,-10.8999910354614
2014-10-11,11.2416667143504,0.223646282528838,0.0299999993294477,11.6708333094915,-10.5873912970225,12.1999998092651,0.274133334557215,0.449999988079071,11.8250000476837,-11.5991497039795,12.0541668732961,-10.8999910354614
2014-10-12,11.0208334128062,0.2234817892313,0.0299999993294477,11.5458335081736,-10.5102719068527,12.1250002384186,0.274068010350068,0.449999988079071,11.7458333174388,-11.5991497039795,11.9916666348775,-10.8999910354614
2014-10-13,10.7791665792465,0.223362040395538,0.0299999993294477,11.3624998728434,-10.5230041742325,11.9749999046326,0.274107189228137,0.449999988079071,11.6416668097178,-11.5991497039795,11.8999996185303,-10.8999910354614
2014-10-14,10.6999998092651,0.223122581839561,0.0299999993294477,11.2208332220713,-10.5924666325251,11.8749997615814,0.273885071277618,0.449999988079071,11.5208334128062,-11.5991497039795,11.8208334048589,-10.8999910354614
2014-10-15,10.7041664918264,0.22319741671284,0.0299999993294477,11.1833332379659,-10.6004953384399,11.8000001907349,0.273885071277618,0.449999988079071,11.4166663487752,-11.5991497039795,11.7374999523163,-10.913085659345
2014-10-16,10.7791667779287,0.223212383687496,0.0299999993294477,11.1000003814697,-10.6004953384399,11.7208332220713,0.274733600517114,0.449999988079071,11.3458332618078,-11.6734413703283,11.6708333094915,-10.9633503357569
2014-10-17,10.9499998092651,0.223526546731591,0.0299999993294477,11.1791665951411,-10.5483461618423,11.6999998092651,0.27426332483689,0.449999988079071,11.3000001907349,-11.6800181865692,11.6000003814697,-11.0001091162364
2014-10-18,11.1750000715256,0.224019974470139,0.0299999993294477,11.25,-10.5008907318115,11.6999998092651,0.273754167060057,0.449999988079071,11.3000001907349,-11.6971575021744,11.5458335081736,-11.0008478164673
2014-10-19,11.5,0.224423160155614,0.0299999993294477,11.4291665156682,-10.5008907318115,11.7083331743876,0.273871775716543,0.449999988079071,11.3333333333333,-11.6973832050959,11.5,-11.0008478164673
2014-10-20,11.5458335081736,0.224542578682303,0.0299999993294477,11.5583335558573,-10.4120364983877,11.8000001907349,0.27415918931365,0.449999988079071,11.3999996185303,-11.6630985339483,11.5,-11.0008478164673
2014-10-21,11.4291664759318,0.224572433158755,0.0299999993294477,11.5458335081736,-10.4799146652222,11.8000001907349,0.273898030320803,0.449999988079071,11.4416664441427,-11.6973853508631,11.5,-11.0008478164673
2014-10-22,10.9875000317891,0.224273901432753,0.0299999993294477,11.4249999125799,-10.3998279571533,11.8000001907349,0.274577118456364,0.450416655590137,11.4374997615814,-11.6050578753153,11.5,-11.0008478164673
2014-10-23,10.8000001907349,0.224169383446376,0.0299999993294477,11.2041665712992,-10.3998279571533,11.7291666269302,0.275228931258122,0.457500003278255,11.3499999046326,-11.5991497039795,11.5,-11.0008478164673
2014-10-24,10.9458331664403,0.224303755909204,0.0299999993294477,11.1749999523163,-10.3066008885702,11.6000003814697,0.27619111041228,0.46000000834465,11.2791667779287,-11.5558071533839,11.4791665871938,-11.0008478164673
2014-10-25,10.8541665871938,0.224542591720819,0.0299999993294477,11.1666666666667,-10.2008059422175,11.6000003814697,0.277461214611928,0.465416669845581,11.1999998092651,-11.5007495880127,11.3999996185303,-11.0008478164673
2014-10-26,10.8000001907349,0.224527664482594,0.0299999993294477,11.0791669686635,-10.1135363976161,11.5416668256124,0.278778300931056,0.469999998807907,11.1999998092651,-11.5007495880127,11.3999996185303,-10.9946266412735
2014-10-27,10.9499999682109,0.224691746756434,0.0299999993294477,11.0666669209798,-10.0912220875422,11.5,0.280103169381618,0.469999998807907,11.116666952769,-11.5007495880127,11.3291666905085,-10.9471550782522
2014-10-28,11.3749999205271,0.225213351349036,0.0299999993294477,11.2291667064031,-9.98713835080465,11.5,0.281089197844267,0.469999998807907,11.1416668097178,-11.4899731874466,11.3000001907349,-10.9301549196243
2014-10-29,11.3875000476837,0.226833844557405,0.0299999993294477,11.3958329757055,-9.84439595540365,11.5916670163472,0.282162897288799,0.47583332657814,11.2083331743876,-11.400559425354,11.3000001907349,-10.9008280833562
2014-10-30,10.8708333969116,0.2275750041008,0.0299999993294477,11.2375000317891,-9.80000114440918,11.6000003814697,0.284375850111246,0.479999989271164,11.2416666348775,-11.3556745052338,11.3000001907349,-10.8999910354614
2014-10-31,10.8874999284744,0.228905564794938,0.0299999993294477,11.1000003814697,-9.80000114440918,11.5250000953674,0.285539887845516,0.479999989271164,11.1833332379659,-11.3012409210205,11.3000001907349,-10.8999910354614
2014-11-01,11.1749999523163,0.230408302818735,0.0299999993294477,11.1708333094915,-9.80000114440918,11.5,0.28693862631917,0.487083336959283,11.1083336671193,-11.3012409210205,11.3000001907349,-10.8999910354614
2014-11-02,11.1999998092651,0.231890729938944,0.0299999993294477,11.3000001907349,-9.80000114440918,11.5,0.288018455108007,0.490000009536743,11.1999998092651,-11.3012409210205,11.3000001907349,-10.8999910354614
2014-11-03,10.9583333730698,0.233250748366117,0.0379166658191631,11.2333333094915,-9.80000114440918,11.5250000953674,0.288256565729777,0.490000009536743,11.1999998092651,-11.3012409210205,11.3000001907349,-10.8999910354614
2014-11-04,10.491666674614,0.234838905433814,0.0479166670702398,11.0125000476837,-9.80000114440918,11.4874999523163,0.288143791258335,0.490000009536743,11.1333335240682,-11.3012409210205,11.2750000953674,-10.8999910354614
2014-11-05,10.0791666507721,0.237185092642903,0.0633333325386047,10.7375000317891,-9.80000114440918,11.3749997615814,0.288994333396355,0.490000009536743,11.0041666825612,-11.3012409210205,11.1999998092651,-10.8999910354614
2014-11-06,9.66249998410543,0.242523796235522,0.0766666655739148,10.4541666507721,-9.80000114440918,11.1916666825612,0.290104523301125,0.490000009536743,10.8458332618078,-11.3003737131755,11.158333381017,-10.8999910354614
2014-11-07,9.42083303133647,0.249888126427929,0.100833334649603,10.1416666905085,-9.80000114440918,11.0208334128062,0.290266609440247,0.490000009536743,10.6500000953674,-11.3011325200399,11.0625002384186,-10.8999910354614
2014-11-08,9.47916658719381,0.257201225807269,0.142916666654249,10,-9.80000114440918,10.841666618983,0.290789044151704,0.490000009536743,10.4916666348775,-11.3011325200399,10.9499998092651,-10.8999910354614
2014-11-09,9.37916640440623,0.261859929809968,0.174583337580164,9.91249966621399,-9.80000114440918,10.75,0.291186559945345,0.490000009536743,10.3874996900558,-11.2724732160568,10.8541665474574,-10.8999910354614
2014-11-10,9.25416672229767,0.264503133793672,0.194583335891366,9.82083336512248,-9.80000114440918,10.6333335240682,0.292016975581646,0.490000009536743,10.2958335081736,-11.2020368178686,10.7708334128062,-10.8999910354614